Lawrenceville, IL

1:32 PM CDT on September 30, 2016 (GMT -0500)
Lawrenceville-Vincennes International

Weather History for KLWV - November, 2013

Change the Weather History Date:

Saturday, November 9, 2013

  Actual Average Record
Temperature  
Mean Temperature 50 °F 49 °F  
Max Temperature 64 °F 59 °F 75 °F (1999)
Min Temperature 36 °F 39 °F 15 °F (1991)
Degree Days  
Heating Degree Days 15 16  
Month to date heating degree days 149 129  
Since 1 July heating degree days 460 426  
Cooling Degree Days 0 0  
Month to date cooling degree days 0 0  
Year to date cooling degree days 1287 1386  
Moisture  
Dew Point 37 °F    
Average Humidity 61    
Maximum Humidity 82    
Minimum Humidity 39    
Precipitation  
Precipitation 0.00 in 0.10 in 0.79 in (1979)
Month to date precipitation 0.59 1.05  
Year to date precipitation 49.65 37.57  
Sea Level Pressure  
Sea Level Pressure 30.14 in    
Wind  
Wind Speed 11 mph (SW)    
Max Wind Speed 23 mph    
Max Gust Speed 30 mph    
Visibility 9 miles    
Events      
T = Trace of Precipitation, MM = Missing Value Source: NWS Daily Summary

Daily Weather History Graph

Daily Weather History Graph

Search for Another Location

Airport or City:

Trip Planner

Search our weather history database for the weather conditions in past years. The results will help you decide how hot, cold, wet, or windy it might be!

Date:

Astronomy

Nov. 09, 2013 Rise Set
Actual Time 6:26 AM CST 4:41 PM CST
Civil Twilight 5:58 AM CST 5:09 PM CST
Nautical Twilight 5:26 AM CST 5:41 PM CST
Astronomical Twilight 4:55 AM CST 6:12 PM CST
Moon 12:03 PM CST (11/9) 11:10 PM CST (11/9)
Length of Visible Light 11h 11m
Length of Day
10h 15m
Waxing Crescent, 44% of the Moon is Illuminated
Nov 9
Waxing Crescent
Nov 9
First Quarter
Nov 17
Full
Nov 25
Last Quarter
Dec 2
New

Hourly Weather History & Observations

Time (CST) Temp. Windchill Dew Point Humidity Pressure Visibility Wind Dir Wind Speed Gust Speed Precip Events Conditions
12:53 AM 37.9 °F 31.5 °F 28.9 °F 70% 30.19 in 10.0 mi SSE 9.2 mph - N/A   Clear
1:53 AM 39.0 °F 32.8 °F 28.9 °F 67% 30.17 in 9.0 mi South 9.2 mph - N/A   Clear
2:53 AM 41.0 °F 35.8 °F 28.9 °F 62% 30.16 in 9.0 mi South 8.1 mph - N/A   Scattered Clouds
3:53 AM 39.9 °F 36.7 °F 30.0 °F 68% 30.15 in 9.0 mi South 4.6 mph - N/A   Clear
4:53 AM 39.0 °F 36.8 °F 30.0 °F 70% 30.15 in 10.0 mi ESE 3.5 mph - N/A   Clear
5:53 AM 37.9 °F 32.7 °F 32.0 °F 79% 30.14 in 9.0 mi South 6.9 mph - N/A   Clear
6:53 AM 41.0 °F 36.4 °F 33.1 °F 73% 30.14 in 8.0 mi South 6.9 mph - N/A   Clear
7:53 AM 46.9 °F - 36.0 °F 66% 30.14 in 9.0 mi SSW 16.1 mph - N/A   Clear
8:53 AM 53.1 °F - 37.9 °F 57% 30.15 in 10.0 mi SW 18.4 mph 24.2 mph N/A   Clear
9:53 AM 55.9 °F - 37.9 °F 51% 30.14 in 10.0 mi SW 17.3 mph - N/A   Clear
10:53 AM 59.0 °F - 37.9 °F 46% 30.13 in 10.0 mi SW 18.4 mph 26.5 mph N/A   Clear
11:53 AM 61.0 °F - 39.0 °F 44% 30.12 in 10.0 mi SW 17.3 mph - N/A   Clear
12:53 PM 62.1 °F - 37.9 °F 41% 30.09 in 10.0 mi SW 15.0 mph 25.3 mph N/A   Clear
1:53 PM 63.0 °F - 39.0 °F 41% 30.08 in 10.0 mi SW 18.4 mph - N/A   Clear
2:53 PM 63.0 °F - 39.9 °F 43% 30.08 in 9.0 mi SW 16.1 mph - N/A   Clear
3:53 PM 61.0 °F - 39.9 °F 46% 30.09 in 9.0 mi SW 11.5 mph - N/A   Clear
4:53 PM 55.9 °F - 41.0 °F 57% 30.10 in 9.0 mi SW 10.4 mph - N/A   Clear
5:53 PM 51.1 °F - 41.0 °F 68% 30.13 in 9.0 mi SW 8.1 mph - N/A   Clear
6:53 PM 51.1 °F - 41.0 °F 68% 30.14 in 9.0 mi SW 8.1 mph - N/A   Clear
7:53 PM 51.1 °F - 41.0 °F 68% 30.15 in 9.0 mi WSW 8.1 mph - N/A   Clear
8:53 PM 52.0 °F - 41.0 °F 66% 30.17 in 8.0 mi WSW 9.2 mph - N/A   Clear
9:53 PM 51.1 °F - 41.0 °F 68% 30.19 in 8.0 mi West 5.8 mph - N/A   Clear
10:53 PM 50.0 °F - 41.0 °F 71% 30.20 in 8.0 mi West 4.6 mph - N/A   Clear
11:53 PM 46.9 °F - 39.9 °F 77% 30.21 in 9.0 mi West 4.6 mph - N/A   Clear